SCP
0 0 0 0 0 0 0 0 0 0 0 0 0 0 0 0 0 0 0 0 0 0 0 0 0 0 0 0 0 0 0 0 0 0 0 0 0 0 0 0 0 0 0
0 0 0 0 0 0 0 0 0 0 0 0 0 0 0 0 0 0 0 0 0 0 0 0 0 0 0 0 0 0 0 0 0 0 0 0 0 0 0 0 0 0 0
0 0 0 0 0 0 0 0 0 0 0 0 0 0 0 0 0 0 0 0 0 0 0 0 0 0 0 0 0 0 0 0 0 0 0 0 0 0 0 0 0 0 0
0 0 0 0 0 0 0 0 0 0 0 0 0 0 0 0 0 0 0 0 0 0 0 0 0 0 0 0 0 0 0 0 0 0 0 0 0 0 0 0 0 0 0
0 0 0 0 0 0 0 0 0 0 0 0 0 0 0 0 0 0 0 0 0 0 0 0 0 0 0 0 0 0 0 0 0 0 0 0 0 0 0 0 0 0 0
0 0 0 0 0 0 0 0 0 0 0 0 0 0 0 0 0 0 0 0 0 0 0 0 0 0 0 0 -0 -0 -0 0 0 0 0 0 0 0 0 0 0 0 0
0 0 0 0 0 0 0 0 0 0 0 0 0 0 0 0 0 0 0 0 0 0 0 0 0 0 0 0 0 0 -0 -0 -0 0 0 0 0 0 0 0 0 0 0
0 0 0 0 0 0 0 0 0 0 0 0 0 0 0 0 0 0 0 0 0 0 0 0 0 0 0 0 0 0 0 0 -0 -0 -0 0 0 0 0 0 0 0 0
0 0 0 0 0 0 0 0 0 0 0 0 0 0 0 0 0 0 0 0 0 0 0 0 0 0 0 0 0 0 0 0 0 -0 -0 -0 -0 0 0 0 0 0 0
0 0 0 0 0 0 0 0 0 0 0 0 0 0 0 0 0 0 0 0 0 0 0 0 0 0 0 0 0 0 0 0 0 -0 0 -0 -0 0 0 0 0 0 0
0 0 0 0 0 0 0 0 0 0 0 0 0 0 0 0 0 0 0 0 0 0 0 0 0 0 0 0 0 0 0 0 0 0 0 0 -0 0 0 0 0 0 0
0 0 0 0 0 0 0 0 0 0 0 0 0 0 0 0 0 0 0 0 0 0 0 0 0 0 0 0 0 0 0 0 0 0 0 0 0 0 0 0 0 0 0
0 0 0 0 0 0 0 0 0 0 0 0 0 0 0 0 0 0 0 0 0 0 0 0 0 0 0 0 0 0 0 0 0 0 0 0 0 0 0 0 0 0 0
0 0 0 0 0 0 0 0 0 0 0 0 0 0 0 0 0 0 0 0 0 0 0 0 0 0 0 0 0 0 0 0 0 0 0 0 0 0 0 0 0 0 0
0 0 0 0 0 0 0 0 0 0 0 0 0 0 0 0 0 0 0 0 0 0 0 0 0 0 0 0 0 0 0 0 0 0 0 0 0 0 -0 -0 0 -0 -0
0 0 0 0 0 0 0 0 0 0 0 0 0 0 0 0 0 0 0 0 0 0 0 0 0 0 0 0 0 0 0 0 0 0 0 0 0 0 -0 -0 -0 -0 0
0 0 0 0 0 0 0 0 0 0 0 0 0 0 0 0 0 0 0 0 0 0 0 0 0 0 0 0 0 0 0 0 0 0 0 0 0 0 0 0 0 0 0
0 0 0 0 0 0 0 0 0 0 0 0 0 0 0 0 0 0 0 0 0 0 0 0 0 0 0 0 0 0 0 0 0 0 0 0 0 0 0 0 0 0 0
0 0 0 0 0 0 0 0 0 0 0 0 0 0 0 0 0 0 0 0 0 0 0 0 0 0 0 0 0 0 0 0 0 0 0 0 0 0 0 0 0 0 0
0 0 0 0 0 0 0 0 0 0 0 0 0 0 0 0 0 0 0 0 0 0 0 0 0 0 0 0 0 0 0 0 0 0 0 0 0 0 0 0 0 0 0
0 0 0 0 0 0 0 0 0 0 0 0 0 0 0 0 0 0 0 0 0 0 0 0 0 0 0 0 0 0 0 0 0 0 0 0 0 0 0 0 0 0 0
0 0 0 0 0 0 0 0 0 0 0 0 0 0 0 0 0 0 0 0 0 0 0 0 0 0 0 0 0 0 0 0 0 0 0 0 0 0 0 0 0 0 0
0 0 0 0 0 0 0 0 0 0 0 0 0 0 0 0 0 0 0 0 0 0 0 0 0 0 0 0 0 0 0 0 0 0 0 0 0 0 0 0 0 0 0
0 0 0 0 0 0 0 0 0 0 0 0 0 0 0 0 0 0 0 0 0 0 0 0 0 0 0 0 0 0 0 0 0 0 0 0 0 0 0 0 0 0 0
0 0 0 0 0 0 0 0 0 0 0 0 0 0 0 0 0 0 0 0 0 0 0 0 0 0 0 0 0 0 0 0 0 0 0 0 0 0 0 0 0 0 0
0 0 0 0 0 0 0 0 0 0 0 0 0 0 0 0 0 0 0 0 0 0 0 0 0 0 0 0 0 0 0 0 0 0 0 0 0 0 0 0 0 0 0
Wind_Speed_500mb
33 40 42 41 42 46 48 46 48 48 49 52 50 53 56 49 47 55 61 70 69 65 57 44 38 32 33 32 31 31 34 39 44 52 47 40 41 40 39 37 39 43 45
37 38 43 40 43 47 51 51 53 51 55 54 54 57 54 50 55 62 66 67 66 62 52 45 41 36 34 32 29 32 35 42 44 52 45 46 40 37 41 42 40 44 46
36 40 42 40 43 54 57 54 53 56 53 51 54 55 56 57 61 63 65 67 65 53 46 39 37 33 33 30 32 30 36 32 39 47 53 47 42 32 34 36 39 41 43
37 37 40 37 45 54 61 59 56 55 54 53 53 55 59 61 53 60 64 69 61 49 42 38 36 35 34 29 42 44 41 45 46 49 49 46 43 40 37 40 38 37 37
33 36 38 36 45 55 62 60 56 58 55 51 53 56 59 59 54 56 66 66 56 48 41 37 37 32 31 32 37 42 44 44 45 51 57 59 55 47 40 32 36 31 27
31 31 35 38 46 57 62 60 59 62 59 51 55 58 61 62 57 60 64 64 52 46 45 40 35 34 34 35 36 39 41 46 52 54 54 53 49 43 32 29 31 30 32
25 32 35 41 45 56 60 59 61 65 63 54 57 60 61 65 63 66 66 61 51 46 42 40 38 40 40 42 46 45 42 38 40 48 56 57 51 39 29 30 34 35 35
28 33 38 42 45 52 56 60 61 68 61 57 60 63 64 69 65 69 67 61 54 48 39 40 41 43 40 46 44 39 33 29 30 37 48 45 40 32 32 35 33 35 38
33 33 40 42 46 49 55 61 61 68 59 57 62 66 69 73 66 68 68 62 57 52 42 40 40 41 41 38 36 33 30 23 19 30 29 29 29 29 28 27 35 39 40
36 35 39 40 45 49 53 59 59 66 57 59 64 67 71 76 72 68 67 63 60 54 48 43 38 40 37 33 33 31 31 28 21 12 13 17 21 26 28 39 41 45 41
32 34 37 38 42 47 49 56 59 64 59 64 67 70 74 75 75 71 64 63 60 55 55 54 46 39 34 32 31 30 25 20 17 13 8 10 23 36 34 36 41 44 42
31 34 36 38 43 47 51 53 57 63 64 67 69 74 76 76 76 73 68 63 56 54 56 55 50 43 38 35 34 32 23 19 13 14 13 13 19 25 35 37 39 39 43
29 35 38 38 43 49 52 52 57 63 67 69 72 74 77 79 79 75 77 72 67 59 57 55 53 52 48 43 41 38 33 31 27 22 12 12 15 17 24 26 34 38 40
28 34 39 40 43 48 49 49 53 61 65 66 68 70 72 76 80 81 81 84 80 73 68 66 67 65 61 55 52 51 49 43 40 31 21 9 12 20 25 25 34 39 41
29 35 39 40 44 45 46 46 43 46 51 54 56 59 66 71 73 72 79 86 88 83 83 81 82 82 80 74 69 65 59 54 52 41 33 18 7 15 22 27 33 37 42
31 37 41 42 44 45 44 38 36 39 44 46 48 52 56 57 63 72 78 85 88 89 98 101 97 92 89 85 81 77 71 69 63 58 48 35 19 10 9 21 29 37 43
36 38 41 42 45 45 45 44 44 39 48 49 50 53 58 62 67 73 80 87 90 97 109 108 105 98 92 87 83 82 80 78 72 65 57 50 38 25 13 9 21 31 35
36 38 41 41 42 41 41 43 45 52 55 58 55 56 60 64 69 75 82 88 100 108 110 111 110 106 100 93 90 87 85 85 82 77 69 64 58 49 37 27 21 28 35
35 38 38 37 38 40 41 43 48 51 54 57 59 60 61 65 71 76 84 96 101 106 109 112 111 112 109 103 97 94 92 91 88 86 81 77 74 66 54 43 39 34 42
34 36 35 35 39 44 46 49 52 53 56 60 67 69 70 73 81 85 88 91 95 99 104 109 111 112 114 113 107 104 103 101 96 94 91 88 85 78 71 60 54 55 53
32 33 33 34 40 42 47 54 56 58 60 62 62 64 67 72 75 78 81 86 90 94 99 103 106 111 114 115 114 112 110 106 100 98 100 97 96 93 85 79 67 60 56
29 30 31 34 37 43 48 49 54 59 63 64 64 67 70 71 73 76 78 81 84 87 92 97 101 105 108 113 116 118 113 109 108 105 104 102 102 103 98 93 88 76 68
25 27 27 31 38 42 43 48 54 58 61 63 65 69 74 76 78 80 80 82 83 86 89 93 97 101 102 105 107 109 110 110 106 104 106 106 108 109 109 105 99 94 84
22 23 26 32 35 38 44 49 50 52 55 58 61 64 67 69 71 73 76 79 81 85 89 92 94 96 99 102 103 104 103 104 105 107 108 107 109 111 111 111 109 100 93
18 20 24 29 33 38 42 43 46 48 52 55 57 59 61 64 67 70 72 75 79 83 86 88 91 93 96 97 100 100 101 101 104 107 110 110 109 110 110 111 109 105 101
14 17 22 25 31 35 36 38 41 44 47 49 52 54 57 60 63 66 70 72 75 78 81 85 86 89 93 96 97 97 99 101 103 104 105 108 111 112 110 107 105 106 102
Wind_Direction_500mb
360 358 359 359 356 354 351 348 341 339 337 334 329 329 330 330 326 325 321 322 326 328 327 322 315 307 303 301 291 280 272 269 270 282 281 281 278 274 265 261 256 252 251
357 356 358 0 359 359 354 346 343 338 336 334 331 331 334 332 330 326 328 334 337 334 332 325 321 312 303 297 295 293 291 274 266 277 284 283 279 270 266 263 258 254 253
355 354 359 4 3 359 356 350 347 341 341 339 337 337 337 336 333 335 340 340 339 336 333 328 322 313 306 300 297 289 295 287 273 273 281 283 283 271 264 260 258 252 252
354 360 4 8 5 2 1 358 356 356 351 348 346 342 340 339 338 339 344 340 340 339 338 333 328 319 311 304 298 297 293 280 274 274 275 276 277 278 270 265 256 253 258
358 7 11 9 3 2 3 3 2 2 357 353 350 349 347 349 349 348 344 341 341 339 339 338 333 328 316 305 300 297 292 285 278 272 271 273 274 270 267 252 251 251 254
1 16 10 9 3 2 4 6 5 4 1 358 357 356 356 357 355 353 348 343 344 344 343 339 335 334 330 324 312 297 284 275 273 271 271 269 268 267 258 229 236 246 255
20 16 11 8 4 1 3 5 6 5 2 3 2 2 3 3 2 352 350 349 349 349 344 341 340 341 337 332 322 310 298 281 264 263 264 265 265 257 243 220 229 232 239
21 15 9 8 4 2 3 4 4 5 7 6 8 8 8 8 5 353 352 353 356 354 347 346 345 341 341 336 327 319 314 296 274 263 258 262 257 248 238 238 237 242 246
19 7 5 4 3 3 2 3 3 4 8 11 13 12 12 10 4 357 355 357 357 355 355 351 347 345 345 343 341 340 336 329 321 264 264 253 240 222 227 242 232 227 240
13 6 1 1 2 3 360 1 3 4 9 15 18 16 16 13 9 3 359 360 359 356 0 357 352 352 352 357 360 360 348 345 338 328 245 242 228 227 233 229 233 232 236
7 3 3 5 1 1 1 0 1 6 12 19 20 20 19 16 14 11 10 7 2 2 6 6 5 4 4 8 13 13 10 340 350 331 290 244 230 228 237 228 228 226 230
0 6 9 6 2 3 3 2 3 9 16 19 20 20 20 18 18 16 18 18 12 12 14 14 14 14 16 20 25 23 18 17 356 8 321 269 250 228 221 231 230 232 233
359 8 9 6 5 5 5 6 7 13 17 18 19 18 18 18 18 19 24 23 22 24 26 24 24 26 28 29 33 32 30 32 31 31 7 307 263 236 237 231 226 232 232
5 7 6 8 8 7 8 10 10 15 17 17 17 16 17 20 18 17 22 24 25 30 31 31 31 33 35 35 36 39 40 39 34 27 15 333 281 257 244 237 228 230 231
10 9 10 9 8 12 11 12 16 21 20 14 15 18 15 18 18 24 26 28 30 30 34 33 31 31 31 32 34 36 38 38 35 35 30 19 333 272 256 244 241 234 237
13 12 12 10 11 13 16 23 23 25 26 24 22 23 26 26 28 30 32 34 33 34 38 34 32 30 28 27 27 30 33 33 32 32 32 34 32 20 263 237 233 228 230
18 13 11 10 11 15 19 25 31 42 39 31 31 30 32 29 29 32 34 37 34 36 38 37 33 30 28 28 27 28 28 32 33 35 35 36 39 46 58 151 195 203 210
16 12 11 12 14 19 24 30 30 31 32 35 37 36 36 34 32 32 32 34 34 36 36 34 34 31 29 28 28 29 31 34 35 35 35 38 40 41 50 75 127 163 176
13 14 14 16 22 25 27 32 35 33 31 30 34 39 38 39 37 36 35 35 33 32 33 34 33 32 31 29 29 31 33 34 35 37 37 39 41 43 54 73 91 119 141
17 16 19 24 29 31 34 40 41 39 38 37 37 34 34 34 36 34 34 34 34 34 33 33 32 32 32 31 30 30 33 36 37 39 39 42 46 50 54 65 80 95 111
20 21 25 30 35 40 48 52 52 50 49 45 42 39 40 37 37 36 35 35 34 34 34 34 32 31 31 32 31 33 33 35 38 41 42 43 48 51 56 64 73 82 93
23 26 30 36 48 58 58 58 56 54 53 51 49 47 45 42 41 41 40 39 38 37 37 36 35 34 32 32 31 33 33 34 37 42 46 47 50 53 55 61 67 73 78
28 31 38 53 62 64 63 62 62 59 55 54 51 48 49 47 44 43 43 42 41 41 40 39 37 37 35 36 35 34 33 36 39 41 44 50 51 54 56 58 61 64 68
36 41 56 66 66 68 68 66 61 57 56 52 50 48 46 46 45 43 41 41 41 41 41 41 41 40 38 37 36 37 36 36 40 44 48 48 51 53 56 58 60 63 66
45 56 69 68 71 72 72 67 62 58 55 53 50 48 47 46 45 45 44 42 41 41 41 39 39 38 38 39 39 37 36 37 39 41 44 49 50 54 54 57 58 58 59
58 73 73 76 79 80 74 67 61 58 54 52 50 48 46 46 44 43 43 42 42 42 41 41 40 39 38 37 36 36 36 36 37 39 41 42 45 47 52 54 56 58 59
Wind_Speed_850mb
33 40 42 41 42 46 48 46 48 48 49 52 50 53 56 49 47 55 61 70 69 65 57 44 38 32 33 32 31 31 34 39 44 52 47 40 41 40 39 37 39 43 45
37 38 43 40 43 47 51 51 53 51 55 54 54 57 54 50 55 62 66 67 66 62 52 45 41 36 34 32 29 32 35 42 44 52 45 46 40 37 41 42 40 44 46
36 40 42 40 43 54 57 54 53 56 53 51 54 55 56 57 61 63 65 67 65 53 46 39 37 33 33 30 32 30 36 32 39 47 53 47 42 32 34 36 39 41 43
37 37 40 37 45 54 61 59 56 55 54 53 53 55 59 61 53 60 64 69 61 49 42 38 36 35 34 29 42 44 41 45 46 49 49 46 43 40 37 40 38 37 37
33 36 38 36 45 55 62 60 56 58 55 51 53 56 59 59 54 56 66 66 56 48 41 37 37 32 31 32 37 42 44 44 45 51 57 59 55 47 40 32 36 31 27
31 31 35 38 46 57 62 60 59 62 59 51 55 58 61 62 57 60 64 64 52 46 45 40 35 34 34 35 36 39 41 46 52 54 54 53 49 43 32 29 31 30 32
25 32 35 41 45 56 60 59 61 65 63 54 57 60 61 65 63 66 66 61 51 46 42 40 38 40 40 42 46 45 42 38 40 48 56 57 51 39 29 30 34 35 35
28 33 38 42 45 52 56 60 61 68 61 57 60 63 64 69 65 69 67 61 54 48 39 40 41 43 40 46 44 39 33 29 30 37 48 45 40 32 32 35 33 35 38
33 33 40 42 46 49 55 61 61 68 59 57 62 66 69 73 66 68 68 62 57 52 42 40 40 41 41 38 36 33 30 23 19 30 29 29 29 29 28 27 35 39 40
36 35 39 40 45 49 53 59 59 66 57 59 64 67 71 76 72 68 67 63 60 54 48 43 38 40 37 33 33 31 31 28 21 12 13 17 21 26 28 39 41 45 41
32 34 37 38 42 47 49 56 59 64 59 64 67 70 74 75 75 71 64 63 60 55 55 54 46 39 34 32 31 30 25 20 17 13 8 10 23 36 34 36 41 44 42
31 34 36 38 43 47 51 53 57 63 64 67 69 74 76 76 76 73 68 63 56 54 56 55 50 43 38 35 34 32 23 19 13 14 13 13 19 25 35 37 39 39 43
29 35 38 38 43 49 52 52 57 63 67 69 72 74 77 79 79 75 77 72 67 59 57 55 53 52 48 43 41 38 33 31 27 22 12 12 15 17 24 26 34 38 40
28 34 39 40 43 48 49 49 53 61 65 66 68 70 72 76 80 81 81 84 80 73 68 66 67 65 61 55 52 51 49 43 40 31 21 9 12 20 25 25 34 39 41
29 35 39 40 44 45 46 46 43 46 51 54 56 59 66 71 73 72 79 86 88 83 83 81 82 82 80 74 69 65 59 54 52 41 33 18 7 15 22 27 33 37 42
31 37 41 42 44 45 44 38 36 39 44 46 48 52 56 57 63 72 78 85 88 89 98 101 97 92 89 85 81 77 71 69 63 58 48 35 19 10 9 21 29 37 43
36 38 41 42 45 45 45 44 44 39 48 49 50 53 58 62 67 73 80 87 90 97 109 108 105 98 92 87 83 82 80 78 72 65 57 50 38 25 13 9 21 31 35
36 38 41 41 42 41 41 43 45 52 55 58 55 56 60 64 69 75 82 88 100 108 110 111 110 106 100 93 90 87 85 85 82 77 69 64 58 49 37 27 21 28 35
35 38 38 37 38 40 41 43 48 51 54 57 59 60 61 65 71 76 84 96 101 106 109 112 111 112 109 103 97 94 92 91 88 86 81 77 74 66 54 43 39 34 42
34 36 35 35 39 44 46 49 52 53 56 60 67 69 70 73 81 85 88 91 95 99 104 109 111 112 114 113 107 104 103 101 96 94 91 88 85 78 71 60 54 55 53
32 33 33 34 40 42 47 54 56 58 60 62 62 64 67 72 75 78 81 86 90 94 99 103 106 111 114 115 114 112 110 106 100 98 100 97 96 93 85 79 67 60 56
29 30 31 34 37 43 48 49 54 59 63 64 64 67 70 71 73 76 78 81 84 87 92 97 101 105 108 113 116 118 113 109 108 105 104 102 102 103 98 93 88 76 68
25 27 27 31 38 42 43 48 54 58 61 63 65 69 74 76 78 80 80 82 83 86 89 93 97 101 102 105 107 109 110 110 106 104 106 106 108 109 109 105 99 94 84
22 23 26 32 35 38 44 49 50 52 55 58 61 64 67 69 71 73 76 79 81 85 89 92 94 96 99 102 103 104 103 104 105 107 108 107 109 111 111 111 109 100 93
18 20 24 29 33 38 42 43 46 48 52 55 57 59 61 64 67 70 72 75 79 83 86 88 91 93 96 97 100 100 101 101 104 107 110 110 109 110 110 111 109 105 101
14 17 22 25 31 35 36 38 41 44 47 49 52 54 57 60 63 66 70 72 75 78 81 85 86 89 93 96 97 97 99 101 103 104 105 108 111 112 110 107 105 106 102
Wind_Direction_850mb
360 358 359 359 356 354 351 348 341 339 337 334 329 329 330 330 326 325 321 322 326 328 327 322 315 307 303 301 291 280 272 269 270 282 281 281 278 274 265 261 256 252 251
357 356 358 0 359 359 354 346 343 338 336 334 331 331 334 332 330 326 328 334 337 334 332 325 321 312 303 297 295 293 291 274 266 277 284 283 279 270 266 263 258 254 253
355 354 359 4 3 359 356 350 347 341 341 339 337 337 337 336 333 335 340 340 339 336 333 328 322 313 306 300 297 289 295 287 273 273 281 283 283 271 264 260 258 252 252
354 360 4 8 5 2 1 358 356 356 351 348 346 342 340 339 338 339 344 340 340 339 338 333 328 319 311 304 298 297 293 280 274 274 275 276 277 278 270 265 256 253 258
358 7 11 9 3 2 3 3 2 2 357 353 350 349 347 349 349 348 344 341 341 339 339 338 333 328 316 305 300 297 292 285 278 272 271 273 274 270 267 252 251 251 254
1 16 10 9 3 2 4 6 5 4 1 358 357 356 356 357 355 353 348 343 344 344 343 339 335 334 330 324 312 297 284 275 273 271 271 269 268 267 258 229 236 246 255
20 16 11 8 4 1 3 5 6 5 2 3 2 2 3 3 2 352 350 349 349 349 344 341 340 341 337 332 322 310 298 281 264 263 264 265 265 257 243 220 229 232 239
21 15 9 8 4 2 3 4 4 5 7 6 8 8 8 8 5 353 352 353 356 354 347 346 345 341 341 336 327 319 314 296 274 263 258 262 257 248 238 238 237 242 246
19 7 5 4 3 3 2 3 3 4 8 11 13 12 12 10 4 357 355 357 357 355 355 351 347 345 345 343 341 340 336 329 321 264 264 253 240 222 227 242 232 227 240
13 6 1 1 2 3 360 1 3 4 9 15 18 16 16 13 9 3 359 360 359 356 0 357 352 352 352 357 360 360 348 345 338 328 245 242 228 227 233 229 233 232 236
7 3 3 5 1 1 1 0 1 6 12 19 20 20 19 16 14 11 10 7 2 2 6 6 5 4 4 8 13 13 10 340 350 331 290 244 230 228 237 228 228 226 230
0 6 9 6 2 3 3 2 3 9 16 19 20 20 20 18 18 16 18 18 12 12 14 14 14 14 16 20 25 23 18 17 356 8 321 269 250 228 221 231 230 232 233
359 8 9 6 5 5 5 6 7 13 17 18 19 18 18 18 18 19 24 23 22 24 26 24 24 26 28 29 33 32 30 32 31 31 7 307 263 236 237 231 226 232 232
5 7 6 8 8 7 8 10 10 15 17 17 17 16 17 20 18 17 22 24 25 30 31 31 31 33 35 35 36 39 40 39 34 27 15 333 281 257 244 237 228 230 231
10 9 10 9 8 12 11 12 16 21 20 14 15 18 15 18 18 24 26 28 30 30 34 33 31 31 31 32 34 36 38 38 35 35 30 19 333 272 256 244 241 234 237
13 12 12 10 11 13 16 23 23 25 26 24 22 23 26 26 28 30 32 34 33 34 38 34 32 30 28 27 27 30 33 33 32 32 32 34 32 20 263 237 233 228 230
18 13 11 10 11 15 19 25 31 42 39 31 31 30 32 29 29 32 34 37 34 36 38 37 33 30 28 28 27 28 28 32 33 35 35 36 39 46 58 151 195 203 210
16 12 11 12 14 19 24 30 30 31 32 35 37 36 36 34 32 32 32 34 34 36 36 34 34 31 29 28 28 29 31 34 35 35 35 38 40 41 50 75 127 163 176
13 14 14 16 22 25 27 32 35 33 31 30 34 39 38 39 37 36 35 35 33 32 33 34 33 32 31 29 29 31 33 34 35 37 37 39 41 43 54 73 91 119 141
17 16 19 24 29 31 34 40 41 39 38 37 37 34 34 34 36 34 34 34 34 34 33 33 32 32 32 31 30 30 33 36 37 39 39 42 46 50 54 65 80 95 111
20 21 25 30 35 40 48 52 52 50 49 45 42 39 40 37 37 36 35 35 34 34 34 34 32 31 31 32 31 33 33 35 38 41 42 43 48 51 56 64 73 82 93
23 26 30 36 48 58 58 58 56 54 53 51 49 47 45 42 41 41 40 39 38 37 37 36 35 34 32 32 31 33 33 34 37 42 46 47 50 53 55 61 67 73 78
28 31 38 53 62 64 63 62 62 59 55 54 51 48 49 47 44 43 43 42 41 41 40 39 37 37 35 36 35 34 33 36 39 41 44 50 51 54 56 58 61 64 68
36 41 56 66 66 68 68 66 61 57 56 52 50 48 46 46 45 43 41 41 41 41 41 41 41 40 38 37 36 37 36 36 40 44 48 48 51 53 56 58 60 63 66
45 56 69 68 71 72 72 67 62 58 55 53 50 48 47 46 45 45 44 42 41 41 41 39 39 38 38 39 39 37 36 37 39 41 44 49 50 54 54 57 58 58 59
58 73 73 76 79 80 74 67 61 58 54 52 50 48 46 46 44 43 43 42 42 42 41 41 40 39 38 37 36 36 36 36 37 39 41 42 45 47 52 54 56 58 59